Location: �bnet
(46.9957°N, 8.4908°E)
Time: 01:27:06
(UTC+00:00)

Cosmos 2278 Rocket - Pass Details

Date: 11 May 2021
Orbit: 841 x 845 km, 71.0° (Epoch: 23 June)

Event Time Altitude Azimuth Distance (km) Brightness Sun altitude
Exits shadow 20:17:25 - 188° (S) 3,269 4.9 -12.8°
Reaches altitude 10° 20:19:37 10° 183° (S) 2,452 4.2 -13.0°
Maximum altitude 20:25:01 50° 109° (ESE) 1,062 2.4 -13.7°
Drops below altitude 10° 20:30:27 10° 36° (NE) 2,468 4.8 -14.3°
Sets 20:32:58 0° 31° (NNE) 3,407 5.6 -14.6°
